Location: Bremen
(53.0833°N, 8.8000°E)
Time: 13:38:05
(UTC+02:00)

ISS - Pass Details

Date: 26 April 2025
Orbit: 416 x 419 km, 51.6° (Epoch: 14 May)

Event Time Altitude Azimuth Distance (km) Brightness Sun altitude
Exits shadow 04:31:42 18° 201° (SSW) 1,088 -2.2 -12.0°
Maximum altitude 04:33:27 29° 153° (SSE) 789 -2.5 -11.9°
Drops below altitude 10° 04:36:26 10° 91° (E) 1,498 -0.2 -11.5°
Sets 04:38:41 0° 80° (E) 2,365 1.1 -11.3°
